| time (UTC) | temp F | wind direction | speed MPH | gust MPH | rain 1hr in | rain 24hr in | rain mn in | humidity % | barometer mb |
| 20260904050011 | 62 | 319 | 5.0 | 14.0 | 0.00 | 0.00 | 0.00 | 60 | 1014.7 |
| 20260904045011 | 63 | 302 | 9.0 | 16.0 | 0.00 | 0.00 | 0.00 | 57 | 1014.6 |
| 20260904043011 | 63 | 322 | 5.0 | 16.0 | 0.00 | 0.00 | 0.00 | 56 | 1014.5 |
| 20260904042011 | 62 | 294 | 6.0 | 13.0 | 0.00 | 0.00 | 0.00 | 58 | 1014.7 |
| 20260904041011 | 61 | 289 | 7.0 | 14.0 | 0.00 | 0.00 | 0.00 | 57 | 1014.9 |
| 20260904040013 | 62 | 282 | 6.0 | 12.0 | 0.00 | 0.00 | 0.00 | 55 | 1014.9 |
| 20260904035010 | 61 | 309 | 6.0 | 16.0 | 0.00 | 0.00 | 0.00 | 55 | 1015.0 |
| 20260904034011 | 61 | 293 | 9.0 | 15.0 | 0.00 | 0.00 | 0.00 | 54 | 1015.0 |
| 20260904033011 | 62 | 290 | 9.0 | 20.0 | 0.00 | 0.00 | 0.00 | 53 | 1015.2 |
| 20260904032011 | 61 | 293 | 7.0 | 15.0 | 0.00 | 0.00 | 0.00 | 56 | 1015.3 |
| 20260904031010 | 61 | 290 | 9.0 | 16.0 | 0.00 | 0.00 | 0.00 | 55 | 1015.5 |
| 20260904030011 | 61 | 278 | 6.0 | 14.0 | 0.00 | 0.00 | 0.00 | 54 | 1015.6 |
| 20260904025011 | 61 | 299 | 8.0 | 17.0 | 0.00 | 0.00 | 0.00 | 55 | 1015.7 |
| 20260904024011 | 61 | 285 | 5.0 | 12.0 | 0.00 | 0.00 | 0.00 | 54 | 1016.0 |
| 20260904022013 | 62 | 289 | 9.0 | 14.0 | 0.00 | 0.00 | 0.00 | 51 | 1016.2 |
| 20260904021014 | 62 | 296 | 8.0 | 14.0 | 0.00 | 0.00 | 0.00 | 53 | 1016.3 |
| 20260904014011 | 60 | 301 | 8.0 | 14.0 | 0.00 | 0.00 | 0.00 | 52 | 1016.8 |
| 20260904013011 | 60 | 281 | 7.0 | 15.0 | 0.00 | 0.00 | 0.00 | 53 | 1017.1 |
| 20260904012011 | 60 | 285 | 7.0 | 14.0 | 0.00 | 0.00 | 0.00 | 54 | 1017.3 |
| 20260904011012 | 60 | 293 | 8.0 | 17.0 | 0.00 | 0.00 | 0.00 | 53 | 1017.5 |
| 20260904010011 | 61 | 308 | 9.0 | 18.0 | 0.00 | 0.00 | 0.00 | 53 | 1017.6 |
| 20260904004010 | 59 | 311 | 9.0 | 16.0 | 0.00 | 0.00 | 0.00 | 57 | 1017.6 |
| 20260904003012 | 59 | 292 | 10.0 | 17.0 | 0.00 | 0.00 | 0.00 | 58 | 1017.8 |
| 20260904001011 | 58 | 286 | 5.0 | 13.0 | 0.00 | 0.00 | 0.00 | 63 | 1018.1 |
| 20260904000011 | 57 | 308 | 7.0 | 13.0 | 0.00 | 0.00 | 0.00 | 65 | 1018.5 |
| 20260903235011 | 56 | 291 | 6.0 | 13.0 | 0.00 | 0.00 | 0.00 | 66 | 1018.6 |
| 20260903234011 | 56 | 324 | 3.0 | 10.0 | 0.00 | 0.00 | 0.00 | 69 | 1018.6 |
| 20260903233011 | 56 | 326 | 5.0 | 10.0 | 0.00 | 0.00 | 0.00 | 71 | 1018.6 |
| 20260903231011 | 54 | 301 | 5.0 | 10.0 | 0.00 | 0.00 | 0.00 | 73 | 1018.7 |
| 20260903230012 | 53 | 288 | 4.0 | 9.0 | 0.00 | 0.00 | 0.00 | 75 | 1018.8 |
| 20260903225011 | 52 | 304 | 4.0 | 8.0 | 0.00 | 0.00 | 0.00 | 77 | 1018.7 |
| 20260903224011 | 51 | 315 | 3.0 | 7.0 | 0.00 | 0.00 | 0.00 | 79 | 1018.7 |
| 20260903222011 | 48 | 328 | 2.0 | 6.0 | 0.00 | 0.00 | 0.00 | 86 | 1018.5 |
| 20260903220011 | 45 | 333 | 2.0 | 3.0 | 0.00 | 0.00 | 0.00 | 88 | 1018.4 |
| 20260903215012 | 44 | 333 | 1.0 | 3.0 | 0.00 | 0.00 | 0.00 | 88 | 1018.3 |
| 20260903214011 | 43 | 333 | 1.0 | 2.0 | 0.00 | 0.00 | 0.00 | 88 | 1018.2 |
| 20260903213011 | 42 | 333 | 1.0 | 2.0 | 0.00 | 0.00 | 0.00 | 87 | 1018.1 |
| 20260903212011 | 42 | 333 | 1.0 | 3.0 | 0.00 | 0.00 | 0.00 | 87 | 1018.0 |
| 20260903211010 | 42 | 333 | 1.0 | 2.0 | 0.00 | 0.00 | 0.00 | 87 | 1018.0 |
| 20260903210011 | 42 | 333 | 0.0 | 1.0 | 0.00 | 0.00 | 0.00 | 86 | 1017.9 |
| 20260903205011 | 42 | 333 | 1.0 | 2.0 | 0.00 | 0.00 | 0.00 | 86 | 1017.7 |
| 20260903203011 | 43 | 333 | 1.0 | 3.0 | 0.00 | 0.00 | 0.00 | 86 | 1017.5 |
| 20260903202012 | 43 | 333 | 1.0 | 3.0 | 0.00 | 0.00 | 0.00 | 86 | 1017.4 |
| 20260903201011 | 43 | 333 | 1.0 | 3.0 | 0.00 | 0.00 | 0.00 | 86 | 1017.5 |
| 20260903200010 | 43 | 333 | 1.0 | 6.0 | 0.00 | 0.00 | 0.00 | 85 | 1017.5 |
| 20260903195011 | 44 | 319 | 1.0 | 3.0 | 0.00 | 0.00 | 0.00 | 85 | 1017.5 |
| 20260903193012 | 44 | 317 | 2.0 | 3.0 | 0.00 | 0.00 | 0.00 | 84 | 1017.6 |
| 20260903192011 | 45 | 317 | 2.0 | 3.0 | 0.00 | 0.00 | 0.00 | 84 | 1017.5 |
| 20260903190011 | 46 | 317 | 2.0 | 3.0 | 0.00 | 0.00 | 0.00 | 85 | 1017.4 |
| 20260903185012 | 46 | 313 | 2.0 | 5.0 | 0.00 | 0.00 | 0.00 | 85 | 1017.3 |
| 20260903184011 | 46 | 313 | 2.0 | 3.0 | 0.00 | 0.00 | 0.00 | 85 | 1017.4 |
| 20260903183011 | 46 | 312 | 2.0 | 3.0 | 0.00 | 0.00 | 0.00 | 85 | 1017.3 |
| 20260903182013 | 46 | 312 | 1.0 | 5.0 | 0.00 | 0.00 | 0.00 | 85 | 1017.2 |
| 20260903181011 | 47 | 312 | 3.0 | 7.0 | 0.00 | 0.00 | 0.00 | 86 | 1017.3 |
| 20260903180011 | 47 | 300 | 3.0 | 7.0 | 0.00 | 0.00 | 0.00 | 86 | 1017.1 |
| 20260903174011 | 46 | 318 | 2.0 | 6.0 | 0.00 | 0.00 | 0.00 | 86 | 1017.1 |
| 20260903172011 | 46 | 313 | 2.0 | 3.0 | 0.00 | 0.00 | 0.00 | 87 | 1017.1 |
| 20260903171011 | 46 | 311 | 2.0 | 7.0 | 0.00 | 0.00 | 0.00 | 87 | 1017.2 |
| 20260903170011 | 46 | 313 | 2.0 | 5.0 | 0.00 | 0.00 | 0.00 | 87 | 1017.3 |
| 20260903165011 | 46 | 309 | 2.0 | 5.0 | 0.00 | 0.00 | 0.00 | 86 | 1017.4 |
| 20260903164012 | 46 | 306 | 1.0 | 3.0 | 0.00 | 0.00 | 0.00 | 86 | 1017.5 |
| 20260903161011 | 46 | 306 | 1.0 | 3.0 | 0.00 | 0.00 | 0.00 | 85 | 1017.8 |
| 20260903155011 | 47 | 309 | 1.0 | 5.0 | 0.00 | 0.00 | 0.00 | 85 | 1018.2 |
| 20260903154011 | 47 | 309 | 2.0 | 5.0 | 0.00 | 0.00 | 0.00 | 85 | 1018.1 |
| 20260903153011 | 47 | 309 | 2.0 | 5.0 | 0.00 | 0.00 | 0.00 | 85 | 1018.1 |
| 20260903152011 | 47 | 314 | 2.0 | 6.0 | 0.00 | 0.00 | 0.00 | 85 | 1018.1 |
| 20260903151011 | 47 | 316 | 3.0 | 5.0 | 0.00 | 0.00 | 0.00 | 85 | 1018.1 |
| 20260903150011 | 48 | 305 | 3.0 | 5.0 | 0.00 | 0.00 | 0.00 | 85 | 1018.2 |
| 20260903145010 | 48 | 306 | 3.0 | 5.0 | 0.00 | 0.00 | 0.00 | 85 | 1018.2 |
| 20260903144011 | 48 | 304 | 3.0 | 7.0 | 0.00 | 0.00 | 0.00 | 85 | 1018.3 |
| 20260903143011 | 48 | 312 | 3.0 | 8.0 | 0.00 | 0.00 | 0.00 | 84 | 1018.1 |
| 20260903142011 | 48 | 333 | 1.0 | 6.0 | 0.00 | 0.00 | 0.00 | 83 | 1018.1 |
| 20260903141011 | 48 | 330 | 3.0 | 6.0 | 0.00 | 0.00 | 0.00 | 83 | 1018.0 |
| 20260903140011 | 48 | 302 | 3.0 | 8.0 | 0.00 | 0.00 | 0.00 | 83 | 1018.1 |
| 20260903135011 | 48 | 325 | 2.0 | 5.0 | 0.00 | 0.00 | 0.00 | 82 | 1018.2 |
| 20260903134011 | 48 | 313 | 3.0 | 9.0 | 0.00 | 0.00 | 0.00 | 82 | 1018.2 |
| 20260903133011 | 48 | 312 | 4.0 | 9.0 | 0.00 | 0.00 | 0.00 | 82 | 1018.1 |
| 20260903132011 | 48 | 323 | 2.0 | 6.0 | 0.00 | 0.00 | 0.00 | 81 | 1018.3 |
| 20260903131011 | 48 | 316 | 3.0 | 8.0 | 0.00 | 0.00 | 0.00 | 80 | 1018.3 |
| 20260903130011 | 49 | 318 | 4.0 | 8.0 | 0.00 | 0.00 | 0.00 | 79 | 1018.3 |
| 20260903125012 | 49 | 276 | 2.0 | 3.0 | 0.00 | 0.00 | 0.00 | 79 | 1018.2 |
| 20260903124012 | 50 | 275 | 2.0 | 3.0 | 0.00 | 0.00 | 0.00 | 78 | 1018.1 |
| 20260903123012 | 50 | 275 | 2.0 | 3.0 | 0.00 | 0.00 | 0.00 | 77 | 1018.1 |
| 20260903115011 | 53 | 255 | 4.0 | 12.0 | 0.00 | 0.00 | 0.00 | 77 | 1017.8 |
| 20260903113011 | 53 | 244 | 5.0 | 12.0 | 0.00 | 0.00 | 0.00 | 78 | 1017.6 |
| 20260903112010 | 52 | 251 | 6.0 | 12.0 | 0.00 | 0.00 | 0.00 | 77 | 1017.5 |
| 20260903111010 | 52 | 246 | 2.0 | 6.0 | 0.00 | 0.00 | 0.00 | 77 | 1017.5 |
| 20260903110011 | 52 | 236 | 4.0 | 7.0 | 0.00 | 0.00 | 0.00 | 76 | 1017.5 |
| 20260903105011 | 52 | 238 | 4.0 | 9.0 | 0.00 | 0.00 | 0.00 | 75 | 1017.4 |
| 20260903104011 | 52 | 247 | 2.0 | 8.0 | 0.00 | 0.00 | 0.00 | 74 | 1017.2 |
| 20260903103010 | 53 | 240 | 4.0 | 10.0 | 0.00 | 0.00 | 0.00 | 74 | 1016.9 |
| 20260903102013 | 53 | 233 | 5.0 | 10.0 | 0.00 | 0.00 | 0.00 | 74 | 1016.8 |
| 20260903101011 | 53 | 232 | 5.0 | 9.0 | 0.00 | 0.00 | 0.00 | 74 | 1016.7 |
| 20260903100011 | 53 | 252 | 5.0 | 9.0 | 0.00 | 0.00 | 0.00 | 74 | 1016.5 |
| 20260903094011 | 53 | 247 | 3.0 | 6.0 | 0.00 | 0.00 | 0.00 | 74 | 1016.2 |
| 20260903092013 | 54 | 224 | 4.0 | 6.0 | 0.00 | 0.00 | 0.00 | 73 | 1016.1 |
| 20260903091011 | 54 | 222 | 3.0 | 8.0 | 0.00 | 0.00 | 0.00 | 72 | 1015.9 |
| 20260903085011 | 55 | 258 | 3.0 | 10.0 | 0.00 | 0.00 | 0.00 | 70 | 1015.6 |
| 20260903084011 | 55 | 263 | 3.0 | 12.0 | 0.00 | 0.00 | 0.00 | 68 | 1015.4 |
| 20260903083010 | 56 | 246 | 6.0 | 13.0 | 0.00 | 0.00 | 0.00 | 68 | 1015.3 |
| 20260903082011 | 56 | 243 | 6.0 | 13.0 | 0.00 | 0.00 | 0.00 | 66 | 1015.1 |
| 20260903081011 | 56 | 243 | 8.0 | 15.0 | 0.00 | 0.00 | 0.00 | 65 | 1015.0 |
| 20260903080011 | 56 | 245 | 7.0 | 14.0 | 0.00 | 0.00 | 0.00 | 64 | 1014.9 |
| 20260903074011 | 57 | 233 | 10.0 | 18.0 | 0.00 | 0.00 | 0.00 | 65 | 1014.6 |
| 20260903073011 | 58 | 245 | 7.0 | 15.0 | 0.00 | 0.00 | 0.00 | 64 | 1014.4 |
| 20260903071011 | 59 | 248 | 9.0 | 20.0 | 0.00 | 0.00 | 0.00 | 64 | 1014.1 |
| 20260903065010 | 59 | 248 | 5.0 | 17.0 | 0.00 | 0.00 | 0.00 | 62 | 1013.7 |
| 20260903064011 | 60 | 247 | 10.0 | 22.0 | 0.00 | 0.00 | 0.00 | 59 | 1013.5 |
| 20260903063011 | 61 | 245 | 7.0 | 18.0 | 0.00 | 0.00 | 0.00 | 56 | 1013.5 |
| 20260903062011 | 61 | 255 | 8.0 | 17.0 | 0.00 | 0.00 | 0.00 | 56 | 1013.3 |
| 20260903061011 | 61 | 246 | 11.0 | 18.0 | 0.00 | 0.00 | 0.00 | 55 | 1013.2 |
| 20260903060013 | 62 | 246 | 10.0 | 17.0 | 0.00 | 0.00 | 0.00 | 55 | 1013.0 |
| 20260903055011 | 62 | 239 | 8.0 | 17.0 | 0.00 | 0.00 | 0.00 | 55 | 1013.0 |
| 20260903053011 | 63 | 242 | 9.0 | 15.0 | 0.00 | 0.00 | 0.00 | 57 | 1012.7 |
| 20260903052011 | 63 | 248 | 7.0 | 16.0 | 0.00 | 0.00 | 0.00 | 59 | 1012.6 |